Flag for Russia Weather past 2 weeks in Barnaul, Russia

Now
61 °F

Broken clouds.


Feels Like: 61 °F
Forecast: 46 / 67 °F
Wind: 17 mph from Northwest

Location: Barnaul Airport


UV Index: 3 (Moderate)

Visibility: N/A


Pressure: 29.89 "Hg

Humidity: 19%

Dew point: 18 °F

Location of BarnaulLocation

Historic Weather in Barnaul

°F

Barnaul temperature yesterday

Maximum temperature yesterday: 68 °F (at 2:00 PM)
Minimum temperature yesterday: 46 °F (at 5:30 AM)
Average temperature yesterday: 57 °F

Past Weeks' High & Low Weather Summary

 TemperatureHumidityPressure
High68 °F (Apr 19, 2:00 PM)100% (Apr 7, 10:00 AM)30.42 "Hg (Apr 7, 10:00 AM)
Low19 °F (Apr 13, 4:30 AM)13% (Apr 19, 4:00 PM)29.47 "Hg (Apr 10, 10:30 PM)
Average44 °F46%30.13 "Hg
* Reported Apr 5 3:00 PM — Apr 20 3:30 PM, Barnaul, Weather by CustomWeather, © 2014

Note: Actual official high and low records may vary slightly from our data, if they occured in-between our weather recording intervals... More about our weather records

Advertising

Historic Weather Conditions — Data for Previous 24 hours

 ConditionsComfort  
Time TempWeatherWind HumidityBarometerVisibility
3:30 PM
Apr 20
61 °FBroken clouds.22 mph16%29.89 "HgN/A
3:00 PM63 °FPartly sunny.20 mph16%29.89 "HgN/A
2:30 PM61 °FPartly sunny.17 mph16%29.89 "HgN/A
2:00 PM61 °FSunny.17 mph16%29.89 "Hg10 mi
1:30 PM61 °FSunny.13 mph19%29.92 "Hg10 mi
1:00 PM59 °FSunny.15 mph20%29.95 "Hg10 mi
12:30 PM57 °FSunny.13 mph25%29.95 "Hg10 mi
12:00 PM57 °FSunny.13 mph27%29.95 "Hg10 mi
11:30 AM55 °FSunny.10 mph28%29.98 "Hg10 mi
11:00 AM54 °FSunny.13 mph30%29.98 "Hg10 mi
10:30 AM54 °FSunny.13 mph30%29.98 "Hg10 mi
9:30 AM50 °FSunny.6 mph40%30.01 "Hg10 mi
9:00 AM48 °FSunny.6 mph43%30.01 "Hg10 mi
8:30 AM46 °FSunny.6 mph46%30.01 "Hg10 mi
8:00 AM45 °FSunny.6 mph53%30.01 "Hg10 mi
7:30 AM43 °FSunny.6 mph61%30.01 "Hg10 mi
7:00 AM41 °FClear.8 mph66%29.98 "Hg10 mi
6:30 AM41 °FClear.10 mph66%29.98 "Hg10 mi
6:00 AM43 °FClear.10 mph61%29.98 "Hg10 mi
5:30 AM43 °FClear.10 mph61%29.98 "Hg10 mi
5:00 AM45 °FPassing clouds.13 mph57%29.98 "HgN/A
4:30 AM46 °FPassing clouds.13 mph53%29.98 "HgN/A
4:00 AM45 °FPassing clouds.10 mph61%29.98 "HgN/A
3:30 AM46 °FPassing clouds.10 mph53%29.98 "HgN/A
3:00 AM50 °FPassing clouds.10 mph47%29.98 "HgN/A
2:30 AM48 °FPassing clouds.10 mph50%29.98 "HgN/A
2:00 AM48 °FPassing clouds.10 mph50%29.98 "HgN/A
1:30 AM50 °FPassing clouds.10 mph43%29.98 "HgN/A
1:00 AM54 °FPassing clouds.15 mph38%29.98 "HgN/A
12:30 AM54 °FPassing clouds.13 mph38%29.98 "HgN/A
12:00 AM54 °FPassing clouds.10 mph35%29.98 "HgN/A
11:30 PM
Apr 19
55 °FPassing clouds.8 mph33%29.98 "HgN/A
11:00 PM57 °FPassing clouds.6 mph29%29.98 "HgN/A
10:30 PM57 °FPassing clouds.8 mph31%30.01 "HgN/A
10:00 PM54 °FPassing clouds.8 mph35%30.01 "HgN/A
9:30 PM55 °FScattered clouds.8 mph33%30.01 "HgN/A
9:00 PM55 °FScattered clouds.8 mph31%30.01 "HgN/A
8:30 PM59 °FPartly sunny.8 mph27%29.98 "HgN/A
8:00 PM61 °FPartly sunny.13 mph23%29.98 "HgN/A
7:30 PM64 °FPartly sunny.15 mph21%29.98 "HgN/A
7:00 PM64 °FPartly sunny.17 mph18%30.01 "HgN/A
6:30 PM64 °FPartly sunny.20 mph19%30.01 "HgN/A
6:00 PM66 °FPartly sunny.20 mph19%30.01 "HgN/A
5:30 PM66 °FPartly sunny.22 mph19%30.01 "HgN/A
5:00 PM66 °FPartly sunny.20 mph18%30.01 "HgN/A
4:30 PM68 °FBroken clouds.20 mph16%30.01 "HgN/A
4:00 PM68 °FBroken clouds.20 mph13%30.01 "HgN/A
Weather by CustomWeather, © 2014

See weather overview